Satellite-Ground Cal/Val Site Overpasses Predictions

Prediction of Satellite NPP Overpassing Cal/Val Site: Antarctic Dome C

Ground Cal/Val Site Location: Latitude: -75.10, Longitude: 123.35; Satellite-Ground Site NADIR distance within 100 km.

Table of predicted overpasses for the next 14.0 days since TLE Epoch: 7/29/2023
Interval Starting Time Ending Time Minimum Distance Time Minimum Distance (km)
1 07/30/2023 15:02:42 07/30/2023 15:03:06 07/30/2023 15:02:54 56.06
2 07/31/2023 14:43:52 07/31/2023 14:44:17 07/31/2023 14:44:04 53.16
3 08/01/2023 07:45:34 08/01/2023 07:45:53 08/01/2023 07:45:44 74.05
4 08/02/2023 07:26:40 08/02/2023 07:27:07 08/02/2023 07:26:54 33.92
5 08/04/2023 15:09:06 08/04/2023 15:09:15 08/04/2023 15:09:10 94.06
6 08/05/2023 14:50:06 08/05/2023 14:50:35 08/05/2023 14:50:21 17.34
7 08/07/2023 07:32:55 08/07/2023 07:33:24 08/07/2023 07:33:10 3.36
8 08/10/2023 14:56:21 08/10/2023 14:56:50 08/10/2023 14:56:36 19.76
